Location: Hamburg
(53.5500°N, 10.0000°E)
Time: 01:52:07
(UTC+01:00)

ISS - Visible Passes

Search period start: 28 February 2017 00:00
Search period end: 10 March 2017 00:00
Orbit: 399 x 408 km, 51.6° (Epoch: 28 February)

Date Brightness Start Highest point End Pass type
(mag) Time Alt. Az. Time Alt. Az. Time Alt. Az.
05 Mar -0.8 05:38:42 10° S 05:40:55 17° SE 05:43:09 10° ESE visible
06 Mar -0.5 04:47:28 10° SSE 04:48:34 11° SE 04:49:39 10° ESE visible
06 Mar -2.0 06:21:16 10° SW 06:24:20 36° SSE 06:27:24 10° E visible
07 Mar -1.6 05:29:26 13° SSW 05:31:50 27° SSE 05:34:41 10° E visible
08 Mar -1.2 04:38:57 19° SSE 04:39:23 19° SSE 04:41:48 10° E visible
08 Mar -2.6 06:12:09 10° WSW 06:15:21 50° SSE 06:18:34 10° E visible
09 Mar -0.2 03:48:23 10° ESE 03:48:23 10° ESE 03:48:32 10° ESE visible
09 Mar -2.4 05:21:01 21° SW 05:22:47 39° SSE 05:25:54 10° E visible
